SP8EBC-11 Weather Reports


time (UTC)temp
C
wind
direction
speed
KPH
gust
KPH
rain 1hr
cm
rain 24hr
cm
rain mn
cm
humidity
%
barometer
mb
20260905235820 11 230 16.1 22.5 0.00 0.00 0.00 93 995.7
20260905235620 11 236 14.5 24.1 0.00 0.00 0.00 93 995.8
20260905235420 11 240 12.9 17.7 0.00 0.00 0.00 93 995.7
20260905235220 11 233 12.9 16.1 0.00 0.00 0.00 93 995.7
20260905235020 11 233 12.9 17.7 0.00 0.00 0.00 93 995.7
20260905234819 11 232 14.5 17.7 0.00 0.00 0.00 93 995.7
20260905234619 11 232 12.9 17.7 0.00 0.00 0.00 93 995.6
20260905234419 11 230 14.5 19.3 0.00 0.00 0.00 93 995.6
20260905234219 11 235 14.5 19.3 0.00 0.00 0.00 93 995.6
20260905234021 11 236 12.9 19.3 0.00 0.00 0.00 93 995.6
20260905233819 11 235 14.5 19.3 0.00 0.00 0.00 93 995.6
20260905233619 11 233 14.5 19.3 0.00 0.00 0.00 93 995.6
20260905233419 11 235 16.1 24.1 0.00 0.00 0.00 93 995.5
20260905233219 11 236 16.1 22.5 0.00 0.00 0.00 93 995.5
20260905233019 11 233 14.5 20.9 0.00 0.00 0.00 93 995.5
20260905232819 11 230 14.5 17.7 0.00 0.00 0.00 93 995.6
20260905232619 11 233 14.5 20.9 0.00 0.00 0.00 93 995.6
20260905232419 11 231 16.1 22.5 0.00 0.00 0.00 93 995.5
20260905232219 11 230 16.1 20.9 0.00 0.00 0.00 93 995.5
20260905232019 11 234 17.7 22.5 0.00 0.00 0.00 93 995.5
20260905231819 11 234 17.7 22.5 0.00 0.00 0.00 93 995.5
20260905231618 11 233 14.5 16.1 0.00 0.00 0.00 93 995.4
20260905231418 11 231 16.1 20.9 0.00 0.00 0.00 93 995.4
20260905231218 11 233 16.1 20.9 0.00 0.00 0.00 93 995.4
20260905231018 11 233 17.7 22.5 0.00 0.00 0.00 93 995.4
20260905230818 11 237 19.3 22.5 0.00 0.00 0.00 93 995.3
20260905230618 11 233 17.7 22.5 0.00 0.00 0.00 93 995.3
20260905230418 11 230 17.7 24.1 0.00 0.00 0.00 93 995.3
20260905230218 11 231 16.1 24.1 0.00 0.00 0.00 92 995.3
20260905230018 11 232 16.1 22.5 0.00 0.00 0.00 93 995.3
20260905225818 11 233 19.3 24.1 0.00 0.00 0.00 93 995.3
20260905225618 11 232 17.7 22.5 0.00 0.00 0.00 93 995.3
20260905225418 11 232 16.1 22.5 0.00 0.00 0.00 93 995.3
20260905225218 11 234 14.5 19.3 0.00 0.00 0.00 93 995.3
20260905225018 11 236 16.1 24.1 0.00 0.00 0.00 93 995.2
20260905224818 11 236 17.7 22.5 0.00 0.00 0.00 93 995.2
20260905224617 11 232 19.3 20.9 0.00 0.00 0.00 93 995.2
20260905224417 11 231 17.7 20.9 0.00 0.00 0.00 92 995.2
20260905224217 11 230 14.5 19.3 0.00 0.00 0.00 93 995.2
20260905224017 11 229 17.7 25.7 0.00 0.00 0.00 92 995.2
20260905223817 11 229 17.7 20.9 0.00 0.00 0.00 92 995.2
20260905223617 11 233 16.1 20.9 0.00 0.00 0.00 92 995.3
20260905223417 11 231 16.1 19.3 0.00 0.00 0.00 92 995.3
20260905223219 11 232 14.5 17.7 0.00 0.00 0.00 92 995.3
20260905223017 11 233 16.1 20.9 0.00 0.00 0.00 92 995.3
20260905222608 11 235 17.7 22.5 0.00 0.00 0.00 92 995.3
20260905222408 11 235 16.1 19.3 0.00 0.00 0.00 92 995.3
20260905222208 11 231 16.1 20.9 0.00 0.00 0.00 92 995.3
20260905222008 11 228 16.1 25.7 0.00 0.00 0.00 92 995.3
20260905221808 11 230 14.5 19.3 0.00 0.00 0.00 92 995.3
20260905221608 11 231 14.5 19.3 0.00 0.00 0.00 92 995.3
20260905221408 11 230 14.5 19.3 0.00 0.00 0.00 92 995.3
20260905221207 11 235 14.5 19.3 0.00 0.00 0.00 92 995.3
20260905221007 11 233 16.1 22.5 0.00 0.00 0.00 92 995.3
20260905220807 11 233 16.1 24.1 0.00 0.00 0.00 92 995.3
20260905220607 11 232 12.9 19.3 0.00 0.00 0.00 92 995.3
20260905220407 11 235 14.5 22.5 0.00 0.00 0.00 92 995.3
20260905220207 11 236 14.5 19.3 0.00 0.00 0.00 92 995.3
20260905220007 11 237 16.1 20.9 0.00 0.00 0.00 92 995.3
20260905215807 11 235 16.1 24.1 0.00 0.00 0.00 92 995.3
20260905215607 11 235 14.5 20.9 0.00 0.00 0.00 92 995.3
20260905215407 11 238 14.5 20.9 0.00 0.00 0.00 92 995.3
20260905215207 11 236 14.5 17.7 0.00 0.00 0.00 92 995.2
20260905215007 11 233 16.1 24.1 0.00 0.00 0.00 92 995.2
20260905214807 11 234 17.7 20.9 0.00 0.00 0.00 92 995.2
20260905214607 11 235 14.5 19.3 0.00 0.00 0.00 92 995.2
20260905214407 11 235 16.1 20.9 0.00 0.00 0.00 92 995.2
20260905214207 11 234 16.1 20.9 0.00 0.00 0.00 92 995.2
20260905214006 11 233 14.5 19.3 0.00 0.00 0.00 92 995.2
20260905213806 11 233 12.9 17.7 0.00 0.00 0.00 92 995.1
20260905213606 11 235 14.5 19.3 0.00 0.00 0.00 92 995.1
20260905213406 11 235 14.5 19.3 0.00 0.00 0.00 92 995.1
20260905213206 11 233 16.1 19.3 0.00 0.00 0.00 92 995.2
20260905213006 11 230 14.5 19.3 0.00 0.00 0.00 92 995.2
20260905212806 11 232 12.9 17.7 0.00 0.00 0.00 92 995.1
20260905212606 11 232 14.5 19.3 0.00 0.00 0.00 91 995.1
20260905212406 11 234 16.1 19.3 0.00 0.00 0.00 91 995.1
20260905212206 11 232 16.1 24.1 0.00 0.00 0.00 91 995.1
20260905212006 11 238 16.1 22.5 0.00 0.00 0.00 91 995.1
20260905211806 11 233 17.7 25.7 0.00 0.00 0.00 91 995.1
20260905211606 11 231 16.1 19.3 0.00 0.00 0.00 91 995.1
20260905211406 11 231 16.1 20.9 0.00 0.00 0.00 91 995.1
20260905211206 11 233 16.1 20.9 0.00 0.00 0.00 91 995.0
20260905211005 11 233 14.5 19.3 0.00 0.00 0.00 91 995.0
20260905210805 11 230 16.1 24.1 0.00 0.00 0.00 91 995.0
20260905210605 11 234 17.7 24.1 0.00 0.00 0.00 91 995.0
20260905210405 11 234 17.7 24.1 0.00 0.00 0.00 91 994.9
20260905210205 11 232 16.1 22.5 0.00 0.00 0.00 91 995.0
20260905210005 11 232 16.1 22.5 0.00 0.00 0.00 91 995.0
20260905205805 11 233 16.1 20.9 0.00 0.00 0.00 91 994.9
20260905205605 11 232 16.1 24.1 0.00 0.00 0.00 91 994.9
20260905205405 11 228 17.7 24.1 0.00 0.00 0.00 91 994.9
20260905205205 11 228 14.5 19.3 0.00 0.00 0.00 91 994.9
20260905205005 11 226 11.3 17.7 0.00 0.00 0.00 91 994.9
20260905204805 11 221 14.5 20.9 0.00 0.00 0.00 91 994.9
20260905204605 11 223 14.5 19.3 0.00 0.00 0.00 91 994.9
20260905204405 11 222 14.5 19.3 0.00 0.00 0.00 91 994.9
20260905204205 11 225 14.5 19.3 0.00 0.00 0.00 91 994.9
20260905204005 11 228 12.9 17.7 0.00 0.00 0.00 91 994.9
20260905203805 11 227 14.5 20.9 0.00 0.00 0.00 91 994.9
20260905203604 11 229 14.5 20.9 0.00 0.00 0.00 91 994.9
20260905203404 11 230 14.5 19.3 0.00 0.00 0.00 91 994.9
20260905203204 11 228 12.9 17.7 0.00 0.00 0.00 91 995.0
20260905203004 11 228 12.9 16.1 0.00 0.00 0.00 91 995.0
20260905202804 11 230 12.9 16.1 0.00 0.00 0.00 91 995.0
20260905202604 11 230 14.5 19.3 0.00 0.00 0.00 91 995.1
20260905202405 11 231 14.5 19.3 0.00 0.00 0.00 91 995.0
20260905202204 11 229 14.5 19.3 0.00 0.00 0.00 91 995.0
20260905202003 11 231 14.5 19.3 0.00 0.00 0.00 90 995.0
20260905201804 12 229 14.5 19.3 0.00 0.00 0.00 90 995.0
20260905201603 12 235 12.9 19.3 0.00 0.00 0.00 90 995.0
20260905201404 12 237 16.1 22.5 0.00 0.00 0.00 90 995.1
20260905201204 12 238 17.7 22.5 0.00 0.00 0.00 90 995.1
20260905201004 12 234 16.1 20.9 0.00 0.00 0.00 90 995.1
20260905200802 12 233 12.9 16.1 0.00 0.00 0.00 90 995.0
20260905200603 12 236 11.3 14.5 0.00 0.00 0.00 90 995.0
20260905200403 12 244 11.3 16.1 0.00 0.00 0.00 90 994.9
20260905200203 12 242 12.9 16.1 0.00 0.00 0.00 90 994.9
20260905200002 12 242 12.9 16.1 0.00 0.00 0.00 90 994.9
20260905195802 12 239 14.5 17.7 0.00 0.00 0.00 90 994.9
20260905195603 12 238 12.9 17.7 0.00 0.00 0.00 90 995.0
20260905195402 12 238 12.9 16.1 0.00 0.00 0.00 90 995.0
20260905195155 12 239 11.3 16.1 0.00 0.00 0.00 90 995.0
20260905194955 12 235 12.9 17.7 0.00 0.00 0.00 90 995.0
20260905194755 12 238 14.5 17.7 0.00 0.00 0.00 90 995.0
20260905194555 12 238 16.1 19.3 0.00 0.00 0.00 90 995.1
20260905194355 12 236 14.5 19.3 0.00 0.00 0.00 90 995.1
20260905194155 12 242 14.5 17.7 0.00 0.00 0.00 90 995.0
20260905193955 12 246 14.5 17.7 0.00 0.00 0.00 90 995.0
20260905193755 12 245 16.1 20.9 0.00 0.00 0.00 90 995.0
20260905193554 12 238 17.7 22.5 0.00 0.00 0.00 90 995.0
20260905193355 12 238 17.7 25.7 0.00 0.00 0.00 90 995.0
20260905193154 12 235 14.5 19.3 0.00 0.00 0.00 90 995.0
20260905192954 12 233 16.1 20.9 0.00 0.00 0.00 90 995.0
20260905192754 11 234 16.1 20.9 0.00 0.00 0.00 90 995.0
20260905192554 11 238 14.5 19.3 0.00 0.00 0.00 90 995.0
20260905192354 11 231 14.5 19.3 0.00 0.00 0.00 90 995.0
20260905192154 11 226 11.3 17.7 0.00 0.00 0.00 90 995.0
20260905191954 11 229 9.7 12.9 0.00 0.00 0.00 90 995.0
20260905191754 11 225 11.3 14.5 0.00 0.00 0.00 90 995.0
20260905191554 11 226 12.9 14.5 0.00 0.00 0.00 90 995.0
20260905191354 11 223 12.9 19.3 0.00 0.00 0.00 90 995.1
20260905191154 11 227 11.3 17.7 0.00 0.00 0.00 90 995.0
20260905190954 12 226 14.5 19.3 0.00 0.00 0.00 90 995.0
20260905190754 11 225 14.5 19.3 0.00 0.00 0.00 90 995.0
20260905190553 11 224 12.9 17.7 0.00 0.00 0.00 90 995.0
20260905190353 11 223 12.9 16.1 0.00 0.00 0.00 90 995.0
20260905190153 12 220 12.9 16.1 0.00 0.00 0.00 90 995.0
20260905185957 12 218 12.9 19.3 0.00 0.00 0.00 90 995.0
20260905185754 12 211 12.9 19.3 0.00 0.00 0.00 90 995.0
20260905185553 12 215 12.9 17.7 0.00 0.00 0.00 90 995.0
20260905185353 12 212 14.5 19.3 0.00 0.00 0.00 90 995.1
20260905185153 11 213 12.9 19.3 0.00 0.00 0.00 90 995.1
20260905184953 11 213 14.5 20.9 0.00 0.00 0.00 90 995.1
20260905184753 11 210 16.1 17.7 0.00 0.00 0.00 90 995.1
20260905184553 11 213 14.5 19.3 0.00 0.00 0.00 90 995.1
20260905184353 11 214 12.9 16.1 0.00 0.00 0.00 89 995.1
20260905184153 11 217 12.9 19.3 0.00 0.00 0.00 90 995.1
20260905183953 11 215 12.9 19.3 0.00 0.00 0.00 89 995.1
20260905183753 11 210 12.9 17.7 0.00 0.00 0.00 89 995.1
20260905183553 11 209 12.9 17.7 0.00 0.00 0.00 89 995.1
20260905183352 11 207 12.9 17.7 0.00 0.00 0.00 89 995.1
20260905183152 11 207 11.3 14.5 0.00 0.00 0.00 89 995.1
20260905182954 11 209 11.3 16.1 0.00 0.00 0.00 90 995.1
20260905182752 11 207 12.9 20.9 0.00 0.00 0.00 89 995.1
20260905182552 11 208 12.9 17.7 0.00 0.00 0.00 89 995.1
20260905182352 11 203 12.9 17.7 0.00 0.00 0.00 89 995.2
20260905182152 11 202 11.3 14.5 0.00 0.00 0.00 89 995.2
20260905181952 11 209 9.7 14.5 0.00 0.00 0.00 89 995.2
20260905181752 11 212 11.3 14.5 0.00 0.00 0.00 89 995.2
20260905181552 11 215 11.3 14.5 0.00 0.00 0.00 89 995.2
20260905181352 11 209 9.7 14.5 0.00 0.00 0.00 89 995.2
20260905181152 11 211 9.7 12.9 0.00 0.00 0.00 89 995.3
20260905180952 11 214 9.7 12.9 0.00 0.00 0.00 89 995.3
20260905180752 11 215 9.7 14.5 0.00 0.00 0.00 89 995.3
20260905180552 11 217 11.3 14.5 0.00 0.00 0.00 89 995.3
20260905180351 11 214 9.7 12.9 0.00 0.00 0.00 89 995.3
20260905180151 11 215 9.7 12.9 0.00 0.00 0.00 89 995.3
20260905175951 11 215 8.0 9.7 0.00 0.00 0.00 89 995.3
20260905175751 11 213 6.4 8.0 0.00 0.00 0.00 89 995.3
20260905175551 11 211 8.0 9.7 0.00 0.00 0.00 89 995.4
20260905175351 11 212 6.4 9.7 0.00 0.00 0.00 89 995.4
20260905175152 11 212 6.4 9.7 0.00 0.00 0.00 89 995.3
20260905174951 11 211 8.0 9.7 0.00 0.00 0.00 88 995.3
20260905174751 11 217 9.7 11.3 0.00 0.00 0.00 88 995.3
20260905174551 11 219 8.0 11.3 0.00 0.00 0.00 89 995.3
20260905174351 11 227 8.0 11.3 0.00 0.00 0.00 88 995.3
20260905174151 11 230 8.0 9.7 0.00 0.00 0.00 88 995.3
20260905173951 11 229 8.0 9.7 0.00 0.00 0.00 88 995.3
20260905173751 11 229 8.0 9.7 0.00 0.00 0.00 88 995.2
20260905173551 11 230 8.0 9.7 0.00 0.00 0.00 88 995.2
20260905173351 11 230 8.0 11.3 0.00 0.00 0.00 88 995.2
20260905173150 11 230 8.0 11.3 0.00 0.00 0.00 88 995.3
20260905172950 11 232 8.0 12.9 0.00 0.00 0.00 88 995.3
20260905172750 11 233 9.7 12.9 0.00 0.00 0.00 88 995.2
20260905172550 11 233 8.0 12.9 0.00 0.00 0.00 88 995.2
20260905172350 12 236 9.7 12.9 0.00 0.00 0.00 88 995.2
20260905172150 12 235 11.3 17.7 0.00 0.00 0.00 88 995.2
20260905171950 11 240 11.3 17.7 0.00 0.00 0.00 88 995.2
20260905171545 12 244 9.7 17.7 0.00 0.00 0.00 88 995.1
20260905171345 12 242 9.7 12.9 0.00 0.00 0.00 88 995.1
20260905171145 12 245 9.7 12.9 0.00 0.00 0.00 88 995.0
20260905170945 12 238 11.3 14.5 0.00 0.00 0.00 88 995.0
20260905170745 12 234 11.3 14.5 0.00 0.00 0.00 88 994.9
20260905170545 12 232 11.3 16.1 0.00 0.00 0.00 88 994.9
20260905170345 12 230 11.3 14.5 0.00 0.00 0.00 88 994.9
20260905170145 12 227 11.3 12.9 0.00 0.00 0.00 87 994.8
20260905165944 12 228 9.7 14.5 0.00 0.00 0.00 87 994.8
20260905165744 12 233 11.3 14.5 0.00 0.00 0.00 88 994.8
20260905165544 12 235 9.7 14.5 0.00 0.00 0.00 87 994.7
20260905165344 12 237 9.7 12.9 0.00 0.00 0.00 87 994.7
20260905165144 12 238 11.3 14.5 0.00 0.00 0.00 87 994.7
20260905164944 12 235 11.3 14.5 0.00 0.00 0.00 87 994.7
20260905164744 12 236 9.7 11.3 0.00 0.00 0.00 87 994.7
20260905164543 12 236 11.3 16.1 0.00 0.00 0.00 87 994.7
20260905164343 12 236 12.9 14.5 0.00 0.00 0.00 87 994.7
20260905164144 12 236 11.3 14.5 0.00 0.00 0.00 87 994.7
20260905163943 12 234 12.9 16.1 0.00 0.00 0.00 87 994.6
20260905163744 12 236 12.9 17.7 0.00 0.00 0.00 87 994.5
20260905163543 12 236 14.5 17.7 0.00 0.00 0.00 87 994.4
20260905163344 12 236 12.9 16.1 0.00 0.00 0.00 87 994.4
20260905163143 12 236 9.7 14.5 0.00 0.00 0.00 87 994.5
20260905162942 12 236 11.3 16.1 0.00 0.00 0.00 87 994.6
20260905162742 12 233 12.9 16.1 0.00 0.00 0.00 87 994.6
20260905162542 12 227 11.3 16.1 0.00 0.00 0.00 87 994.6
20260905162342 12 227 9.7 14.5 0.00 0.00 0.00 87 994.6
20260905162144 12 227 12.9 16.1 0.00 0.00 0.00 87 994.7
20260905161943 12 225 12.9 16.1 0.00 0.00 0.00 87 994.7
20260905161742 12 224 14.5 19.3 0.00 0.00 0.00 87 994.8
20260905161543 12 222 16.1 22.5 0.00 0.00 0.00 87 994.8
20260905161342 12 224 14.5 19.3 0.00 0.00 0.00 87 994.9
20260905161142 12 227 16.1 19.3 0.00 0.00 0.00 87 994.9
20260905160942 12 225 14.5 19.3 0.00 0.00 0.00 87 994.9
20260905160742 12 228 14.5 17.7 0.00 0.00 0.00 87 995.0
20260905160542 12 232 12.9 16.1 0.00 0.00 0.00 87 995.0
20260905160342 12 230 14.5 19.3 0.00 0.00 0.00 87 995.0
20260905160142 12 233 16.1 22.5 0.00 0.00 0.00 87 995.0
20260905155941 12 232 16.1 20.9 0.00 0.00 0.00 87 995.1
20260905155741 12 233 16.1 25.7 0.00 0.00 0.00 87 995.2
20260905155541 12 237 20.9 30.6 0.00 0.00 0.00 87 995.2
20260905155341 12 236 20.9 27.4 0.00 0.00 0.00 87 995.1
20260905155141 12 238 19.3 29.0 0.00 0.00 0.00 87 995.1
20260905154941 12 245 20.9 29.0 0.00 0.00 0.00 87 995.1
20260905154741 12 244 19.3 22.5 0.00 0.00 0.00 87 995.0
20260905154541 12 242 17.7 22.5 0.00 0.00 0.00 87 994.9
20260905154341 12 238 16.1 19.3 0.00 0.00 0.00 87 994.9
20260905154141 12 239 14.5 19.3 0.00 0.00 0.00 87 994.8
20260905153941 12 241 12.9 16.1 0.00 0.00 0.00 87 994.8
20260905153741 12 244 12.9 16.1 0.00 0.00 0.00 86 994.8
20260905153541 12 241 12.9 16.1 0.00 0.00 0.00 86 994.7
20260905153341 12 238 12.9 16.1 0.00 0.00 0.00 86 994.7
20260905153141 12 241 11.3 14.5 0.00 0.00 0.00 86 994.7
20260905152941 12 244 11.3 16.1 0.00 0.00 0.00 86 994.7
20260905152740 12 249 11.3 16.1 0.00 0.00 0.00 86 994.7
20260905152541 12 258 9.7 12.9 0.00 0.00 0.00 86 994.7
20260905152340 12 271 9.7 14.5 0.00 0.00 0.00 85 994.7
20260905152140 12 276 9.7 14.5 0.00 0.00 0.00 85 994.8
20260905151941 12 275 11.3 14.5 0.00 0.00 0.00 85 994.7
20260905151740 12 267 12.9 16.1 0.00 0.00 0.00 85 994.8
20260905151541 12 263 16.1 22.5 0.00 0.00 0.00 85 994.9
20260905151342 12 263 17.7 24.1 0.00 0.00 0.00 85 994.9
20260905151141 12 272 16.1 22.5 0.00 0.00 0.00 85 995.0
20260905150940 12 274 16.1 25.7 0.00 0.00 0.00 84 995.0
20260905150741 12 276 22.5 25.7 0.00 0.00 0.00 84 995.0
20260905150540 12 276 20.9 29.0 0.00 0.00 0.00 84 994.9
20260905150340 12 280 19.3 29.0 0.00 0.00 0.00 84 994.8
20260905150140 12 281 19.3 29.0 0.00 0.00 0.00 84 994.8
20260905145940 12 286 20.9 29.0 0.00 0.00 0.00 84 994.8
20260905145740 12 302 19.3 25.7 0.00 0.00 0.00 84 994.8
20260905145540 12 305 14.5 19.3 0.00 0.00 0.00 84 994.9
20260905145340 12 294 14.5 19.3 0.00 0.00 0.00 84 994.9
20260905145140 12 292 12.9 17.7 0.00 0.00 0.00 84 994.9
20260905144940 12 293 16.1 22.5 0.00 0.00 0.00 84 994.9
20260905144740 12 295 16.1 24.1 0.00 0.00 0.00 83 995.0
20260905144540 13 298 20.9 30.6 0.00 0.00 0.00 82 995.0
20260905144340 13 300 22.5 29.0 0.00 0.00 0.00 81 994.9
20260905144134 14 301 22.5 30.6 0.00 0.00 0.00 81 994.8
20260905143934 15 304 27.4 38.6 0.00 0.00 0.00 80 994.6
20260905143734 16 311 32.2 41.8 0.00 0.00 0.00 80 994.3
20260905143533 16 310 22.5 41.8 0.00 0.00 0.00 81 993.8
20260905143333 16 297 12.9 19.3 0.00 0.00 0.00 81 993.5
20260905143134 16 299 9.7 12.9 0.00 0.00 0.00 81 993.5
20260905142933 16 292 8.0 12.9 0.00 0.00 0.00 81 993.5
20260905142733 16 283 9.7 14.5 0.00 0.00 0.00 81 993.5
20260905142538 16 281 9.7 11.3 0.00 0.00 0.00 81 993.5
20260905142333 16 272 8.0 11.3 0.00 0.00 0.00 81 993.4
20260905142134 16 268 8.0 12.9 0.00 0.00 0.00 81 993.4
20260905141933 16 268 9.7 12.9 0.00 0.00 0.00 81 993.4
20260905141733 16 266 9.7 14.5 0.00 0.00 0.00 81 993.4
20260905141533 16 268 9.7 14.5 0.00 0.00 0.00 81 993.4
20260905141333 16 265 9.7 14.5 0.00 0.00 0.00 81 993.4
20260905141133 16 270 9.7 14.5 0.00 0.00 0.00 81 993.3
20260905140933 16 262 11.3 16.1 0.00 0.00 0.00 81 993.3
20260905140733 16 256 11.3 14.5 0.00 0.00 0.00 81 993.3
20260905140533 16 260 11.3 16.1 0.00 0.00 0.00 81 993.4
20260905140332 16 270 12.9 16.1 0.00 0.00 0.00 81 993.2
20260905140132 16 268 11.3 16.1 0.00 0.00 0.00 81 993.1
20260905135932 16 266 14.5 17.7 0.00 0.00 0.00 81 993.1
20260905135732 16 267 14.5 19.3 0.00 0.00 0.00 81 993.1
20260905135532 16 269 14.5 17.7 0.00 0.00 0.00 81 993.2
20260905135332 16 261 14.5 17.7 0.00 0.00 0.00 81 993.2
20260905135133 15 260 14.5 17.7 0.00 0.00 0.00 81 993.3
20260905134933 15 255 16.1 20.9 0.00 0.00 0.00 81 993.4
20260905134732 15 259 17.7 20.9 0.00 0.00 0.00 81 993.3
20260905134532 15 258 17.7 20.9 0.00 0.00 0.00 81 993.3
20260905134332 15 253 14.5 19.3 0.00 0.00 0.00 81 993.1
20260905134132 15 254 14.5 19.3 0.00 0.00 0.00 82 993.0
20260905133932 15 260 12.9 17.7 0.00 0.00 0.00 82 993.0
20260905133732 15 260 14.5 16.1 0.00 0.00 0.00 82 993.0
20260905133532 15 265 12.9 16.1 0.00 0.00 0.00 82 992.9
20260905133331 15 266 12.9 17.7 0.00 0.00 0.00 82 992.9
20260905133131 15 266 14.5 19.3 0.00 0.00 0.00 82 992.9
20260905132931 15 266 16.1 22.5 0.00 0.00 0.00 82 992.9
20260905132731 14 266 12.9 16.1 0.00 0.00 0.00 82 992.9
20260905132531 14 267 12.9 16.1 0.00 0.00 0.00 82 992.9
20260905132331 13 268 11.3 16.1 0.00 0.00 0.00 82 993.0
20260905132131 13 275 11.3 17.7 0.00 0.00 0.00 82 993.0
20260905131931 13 272 9.7 17.7 0.00 0.00 0.00 82 993.1
20260905131731 13 272 9.7 16.1 0.00 0.00 0.00 82 993.2
20260905131531 13 274 9.7 14.5 0.00 0.00 0.00 82 993.2
20260905131331 13 269 12.9 17.7 0.00 0.00 0.00 82 993.3
20260905131131 13 265 12.9 17.7 0.00 0.00 0.00 81 993.4
20260905130931 13 261 12.9 17.7 0.00 0.00 0.00 81 993.4
20260905130731 13 260 16.1 24.1 0.00 0.00 0.00 81 993.5
20260905130531 13 264 16.1 24.1 0.00 0.00 0.00 81 993.7
20260905130331 13 266 12.9 16.1 0.00 0.00 0.00 81 993.8
20260905130130 13 264 16.1 19.3 0.00 0.00 0.00 81 993.9
20260905125931 13 265 19.3 25.7 0.00 0.00 0.00 80 994.1
20260905125730 12 275 22.5 35.4 0.00 0.00 0.00 80 994.2
20260905125530 13 276 25.7 35.4 0.00 0.00 0.00 79 994.4
20260905125330 14 281 25.7 38.6 0.00 0.00 0.00 78 994.5
20260905125130 15 281 32.2 45.1 0.00 0.00 0.00 76 994.6
20260905124930 16 283 38.6 57.9 0.00 0.00 0.00 75 994.3
20260905124730 17 270 35.4 57.9 0.00 0.00 0.00 74 993.9
20260905124530 17 252 29.0 45.1 0.00 0.00 0.00 73 993.3
20260905124028 17 251 30.6 40.2 0.00 0.00 0.00 73 992.8
20260905123828 17 248 29.0 38.6 0.00 0.00 0.00 73 992.8
20260905123628 18 244 30.6 38.6 0.00 0.00 0.00 73 992.7
20260905123428 18 241 30.6 37.0 0.00 0.00 0.00 73 992.7
20260905123227 18 241 30.6 37.0 0.00 0.00 0.00 73 992.6
20260905123028 18 241 30.6 35.4 0.00 0.00 0.00 73 992.6
20260905122828 18 243 27.4 35.4 0.00 0.00 0.00 73 992.4
20260905122628 18 243 30.6 40.2 0.00 0.00 0.00 73 992.4
20260905122427 18 242 35.4 43.5 0.00 0.00 0.00 73 992.4
20260905122226 17 243 37.0 43.5 0.00 0.00 0.00 73 992.5
20260905122027 17 237 35.4 43.5 0.00 0.00 0.00 73 992.6
20260905121827 17 240 32.2 45.1 0.00 0.00 0.00 73 992.7
20260905121627 17 247 35.4 45.1 0.00 0.00 0.00 73 992.6
20260905121427 17 244 33.8 43.5 0.00 0.00 0.00 73 992.6
20260905121227 17 241 29.0 38.6 0.00 0.00 0.00 73 992.6
20260905121027 17 247 32.2 41.8 0.00 0.00 0.00 73 992.6
20260905120827 18 244 33.8 41.8 0.00 0.00 0.00 73 992.5
20260905120617 18 239 35.4 41.8 0.00 0.00 0.00 73 992.5
20260905120417 18 246 32.2 38.6 0.00 0.00 0.00 73 992.5
20260905120218 18 242 35.4 51.5 0.00 0.00 0.00 73 992.4
20260905120017 18 241 38.6 51.5 0.00 0.00 0.00 74 992.1
20260905115817 18 233 35.4 43.5 0.00 0.00 0.00 74 992.0
20260905115617 18 232 27.4 43.5 0.00 0.00 0.00 75 992.1
20260905115417 18 241 29.0 37.0 0.00 0.00 0.00 75 992.4
20260905115218 17 238 27.4 40.2 0.00 0.00 0.00 75 992.5
20260905115017 17 253 24.1 30.6 0.00 0.00 0.00 75 992.4
20260905114817 17 259 27.4 41.8 0.00 0.00 0.00 75 992.4
20260905114617 17 251 25.7 37.0 0.00 0.00 0.00 75 992.4
20260905114417 17 247 27.4 37.0 0.00 0.00 0.00 75 992.4
20260905114218 17 253 25.7 38.6 0.00 0.00 0.00 75 992.6
20260905114017 17 248 30.6 38.6 0.00 0.00 0.00 75 992.5
20260905113817 17 244 29.0 38.6 0.00 0.00 0.00 75 992.4
20260905113617 17 243 29.0 38.6 0.00 0.00 0.00 76 992.4
20260905113416 17 249 25.7 30.6 0.00 0.00 0.00 76 992.4
20260905113216 17 251 27.4 35.4 0.00 0.00 0.00 76 992.5
20260905113016 17 247 30.6 38.6 0.00 0.00 0.00 76 992.4
20260905112816 17 245 32.2 41.8 0.00 0.00 0.00 76 992.4
20260905112618 17 252 33.8 48.3 0.00 0.00 0.00 76 992.5
20260905112416 17 246 35.4 51.5 0.00 0.00 0.00 76 992.5
20260905112216 17 240 35.4 51.5 0.00 0.00 0.00 77 992.4
20260905112016 17 243 33.8 43.5 0.00 0.00 0.00 77 992.3
20260905111816 17 243 35.4 41.8 0.00 0.00 0.00 77 992.2
20260905111616 17 237 30.6 41.8 0.00 0.00 0.00 78 992.2
20260905111416 17 235 33.8 45.1 0.00 0.00 0.00 78 992.2
20260905111216 16 239 30.6 45.1 0.00 0.00 0.00 78 992.2
20260905111015 16 235 29.0 38.6 0.00 0.00 0.00 78 992.4
20260905110816 16 234 27.4 38.6 0.00 0.00 0.00 78 992.6
20260905110616 16 240 25.7 35.4 0.00 0.00 0.00 78 992.6
20260905110415 16 236 32.2 40.2 0.00 0.00 0.00 78 992.6
20260905110215 16 240 32.2 41.8 0.00 0.00 0.00 78 992.5
20260905110015 16 235 30.6 43.5 0.00 0.00 0.00 78 992.5
20260905105815 16 237 32.2 45.1 0.00 0.00 0.00 78 992.4
20260905105615 16 247 32.2 43.5 0.00 0.00 0.00 78 992.4
20260905105415 16 244 32.2 41.8 0.00 0.00 0.00 78 992.4
20260905105215 16 243 32.2 46.7 0.00 0.00 0.00 78 992.4
20260905105015 16 243 25.7 35.4 0.00 0.00 0.00 78 992.3
20260905104815 16 238 33.8 51.5 0.00 0.00 0.00 78 992.4
20260905104615 16 237 33.8 45.1 0.00 0.00 0.00 79 992.4
20260905104415 16 241 33.8 46.7 0.00 0.00 0.00 79 992.4
20260905104214 16 242 30.6 46.7 0.00 0.00 0.00 79 992.3
20260905104015 16 239 27.4 33.8 0.00 0.00 0.00 79 992.3
20260905103815 16 240 27.4 33.8 0.00 0.00 0.00 79 992.3
20260905103615 16 244 30.6 45.1 0.00 0.00 0.00 79 992.3
20260905103415 16 242 32.2 45.1 0.00 0.00 0.00 79 992.3
20260905103214 16 240 25.7 38.6 0.00 0.00 0.00 79 992.2
20260905103015 16 242 25.7 32.2 0.00 0.00 0.00 79 992.2
20260905102815 16 239 29.0 40.2 0.00 0.00 0.00 79 992.3
20260905102615 16 239 35.4 46.7 0.00 0.00 0.00 79 992.2
20260905102415 16 240 38.6 51.5 0.00 0.00 0.00 79 992.0
20260905102214 16 233 37.0 51.5 0.00 0.00 0.00 79 991.9
20260905102015 16 233 33.8 46.7 0.00 0.00 0.00 79 991.7
20260905101814 16 241 29.0 38.6 0.00 0.00 0.00 79 991.6
20260905101614 16 238 27.4 33.8 0.00 0.00 0.00 80 991.7
20260905101414 16 234 25.7 33.8 0.00 0.00 0.00 80 991.8
20260905101213 15 240 22.5 30.6 0.00 0.00 0.00 80 991.9
20260905101014 15 241 25.7 32.2 0.00 0.00 0.00 80 992.1
20260905100814 16 240 27.4 37.0 0.00 0.00 0.00 79 992.3
20260905100615 16 244 30.6 38.6 0.00 0.00 0.00 79 992.4
20260905100414 16 241 37.0 54.7 0.00 0.00 0.00 79 992.2
20260905100213 16 243 29.0 38.6 0.00 0.00 0.00 79 992.0
20260905100014 16 243 30.6 48.3 0.00 0.00 0.00 79 991.8
20260905095814 16 244 27.4 48.3 0.00 0.00 0.00 79 991.8
20260905095614 16 243 30.6 49.9 0.00 0.00 0.00 79 991.8
20260905095414 16 234 29.0 40.2 0.00 0.00 0.00 79 991.7
20260905095213 16 238 29.0 35.4 0.00 0.00 0.00 79 991.8
20260905095014 16 238 33.8 43.5 0.00 0.00 0.00 79 991.8
20260905094814 16 242 35.4 43.5 0.00 0.00 0.00 79 991.8
20260905094613 16 248 32.2 40.2 0.00 0.00 0.00 79 991.7
20260905094413 16 251 32.2 38.6 0.00 0.00 0.00 79 991.7
20260905094212 16 242 29.0 38.6 0.00 0.00 0.00 80 991.7
20260905094013 16 237 29.0 45.1 0.00 0.00 0.00 80 991.8
20260905093813 16 234 30.6 45.1 0.00 0.00 0.00 80 991.9
20260905093613 16 241 27.4 43.5 0.00 0.00 0.00 80 991.9
20260905093412 16 247 30.6 45.1 0.00 0.00 0.00 80 991.8
20260905093005 16 235 29.0 37.0 0.00 0.00 0.00 80 991.7
20260905092805 16 236 29.0 38.6 0.00 0.00 0.00 80 991.6
20260905092605 16 238 27.4 38.6 0.00 0.00 0.00 81 991.6
20260905092405 16 240 27.4 38.6 0.00 0.00 0.00 81 991.7
20260905092205 16 241 32.2 41.8 0.00 0.00 0.00 80 991.6
20260905092005 16 242 30.6 41.8 0.00 0.00 0.00 81 991.6
20260905091805 16 237 27.4 32.2 0.00 0.00 0.00 81 991.5
20260905091604 16 239 25.7 30.6 0.00 0.00 0.00 81 991.5
20260905091404 16 240 27.4 37.0 0.00 0.00 0.00 81 991.5
20260905091204 15 237 29.0 37.0 0.00 0.00 0.00 81 991.5
20260905091004 15 236 29.0 37.0 0.00 0.00 0.00 82 991.5
20260905090804 15 239 29.0 41.8 0.00 0.00 0.00 82 991.5
20260905090604 15 241 30.6 45.1 0.00 0.00 0.00 82 991.6
20260905090404 15 245 25.7 33.8 0.00 0.00 0.00 82 991.7
20260905090204 15 242 27.4 37.0 0.00 0.00 0.00 82 991.7
20260905090004 15 244 27.4 35.4 0.00 0.00 0.00 82 991.7
20260905085804 15 240 24.1 35.4 0.00 0.00 0.00 82 991.8
20260905085604 15 240 29.0 43.5 0.00 0.00 0.00 81 991.7
20260905085404 15 242 32.2 41.8 0.00 0.00 0.00 81 991.8
20260905085204 15 238 35.4 43.5 0.00 0.00 0.00 82 991.7
20260905085004 15 240 33.8 45.1 0.00 0.00 0.00 81 991.7
20260905084804 15 238 33.8 45.1 0.00 0.00 0.00 82 991.7
20260905084604 15 234 29.0 40.2 0.00 0.00 0.00 82 991.6
20260905084403 15 242 27.4 38.6 0.00 0.00 0.00 82 991.6
20260905084203 15 240 27.4 38.6 0.00 0.00 0.00 82 991.7
20260905084003 15 241 29.0 35.4 0.00 0.00 0.00 82 991.7
20260905083803 15 238 32.2 40.2 0.00 0.00 0.00 82 991.6
20260905083603 15 239 29.0 40.2 0.00 0.00 0.00 82 991.5
20260905083403 15 238 24.1 32.2 0.00 0.00 0.00 82 991.5
20260905083203 15 243 29.0 38.6 0.00 0.00 0.00 82 991.4
20260905083003 15 241 33.8 43.5 0.00 0.00 0.00 82 991.3
20260905082803 15 237 30.6 43.5 0.00 0.00 0.00 82 991.2
20260905082603 15 238 33.8 43.5 0.00 0.00 0.00 82 991.2
20260905082403 15 240 32.2 45.1 0.00 0.00 0.00 82 991.1
20260905082203 15 238 37.0 49.9 0.00 0.00 0.00 82 991.1
20260905082003 15 241 33.8 48.3 0.00 0.00 0.00 82 991.2
20260905081803 15 243 33.8 46.7 0.00 0.00 0.00 82 991.2
20260905081603 15 251 29.0 40.2 0.00 0.00 0.00 83 991.2
20260905081402 15 243 33.8 45.1 0.00 0.00 0.00 83 991.1
20260905081202 15 241 33.8 45.1 0.00 0.00 0.00 83 991.1
20260905081002 15 241 32.2 46.7 0.00 0.00 0.00 83 991.0
20260905080802 15 238 30.6 46.7 0.00 0.00 0.00 83 991.0
20260905080602 15 237 33.8 45.1 0.00 0.00 0.00 83 991.0
20260905080402 15 244 27.4 40.2 0.00 0.00 0.00 84 991.0
20260905080202 15 243 29.0 40.2 0.00 0.00 0.00 84 991.0
20260905080002 15 240 25.7 37.0 0.00 0.00 0.00 84 991.0
20260905075802 15 241 22.5 35.4 0.00 0.00 0.00 84 991.0
20260905075602 15 246 29.0 38.6 0.00 0.00 0.00 84 991.1
20260905075402 15 237 32.2 40.2 0.00 0.00 0.00 84 991.1
20260905075201 15 242 35.4 43.5 0.00 0.00 0.00 84 991.0
20260905075002 15 241 32.2 43.5 0.00 0.00 0.00 84 990.9
20260905074802 15 239 27.4 40.2 0.00 0.00 0.00 84 990.9
20260905074602 15 244 27.4 37.0 0.00 0.00 0.00 84 990.9
20260905074402 15 244 32.2 45.1 0.00 0.00 0.00 84 990.9
20260905074200 15 243 30.6 45.1 0.00 0.00 0.00 84 990.9
20260905074001 15 238 22.5 29.0 0.00 0.00 0.00 84 990.9
20260905073801 15 241 27.4 45.1 0.00 0.00 0.00 84 991.0
20260905073601 15 239 32.2 45.1 0.00 0.00 0.00 84 990.9
20260905073401 15 240 29.0 38.6 0.00 0.00 0.00 84 990.8
20260905073200 15 237 24.1 32.2 0.00 0.00 0.00 84 990.8
20260905073001 15 240 29.0 40.2 0.00 0.00 0.00 84 990.8
20260905072801 15 238 32.2 48.3 0.00 0.00 0.00 84 990.7
20260905072601 15 241 32.2 46.7 0.00 0.00 0.00 84 990.7
20260905072401 15 236 29.0 37.0 0.00 0.00 0.00 84 990.7
20260905072200 15 232 30.6 46.7 0.00 0.00 0.00 84 990.6
20260905072001 15 235 35.4 48.3 0.00 0.00 0.00 84 990.4
20260905071801 15 239 32.2 48.3 0.00 0.00 0.00 84 990.3
20260905071601 15 242 32.2 35.4 0.00 0.00 0.00 84 990.3
20260905071401 15 242 35.4 48.3 0.00 0.00 0.00 84 990.2
20260905071159 15 244 33.8 49.9 0.00 0.00 0.00 84 990.1
20260905071000 15 242 33.8 41.8 0.00 0.00 0.00 85 990.1
20260905070800 15 238 32.2 41.8 0.00 0.00 0.00 85 990.1
20260905070600 15 239 30.6 46.7 0.00 0.00 0.00 85 990.2
20260905070400 15 241 30.6 37.0 0.00 0.00 0.00 85 990.1
20260905070200 15 233 24.1 32.2 0.00 0.00 0.00 85 990.1
20260905070000 15 237 25.7 33.8 0.00 0.00 0.00 85 990.1
20260905065759 15 238 24.1 33.8 0.00 0.00 0.00 85 990.1
20260905065555 15 235 24.1 33.8 0.00 0.00 0.00 85 990.1
20260905065355 15 232 20.9 25.7 0.00 0.00 0.00 85 990.1
20260905065155 15 236 25.7 33.8 0.00 0.00 0.00 85 990.1
20260905064955 15 235 24.1 33.8 0.00 0.00 0.00 85 990.1
20260905064755 15 235 24.1 32.2 0.00 0.00 0.00 85 990.1
20260905064555 15 243 25.7 32.2 0.00 0.00 0.00 85 990.1
20260905064355 14 242 25.7 33.8 0.00 0.00 0.00 85 990.0
20260905064154 14 236 25.7 37.0 0.00 0.00 0.00 85 990.0
20260905063954 14 238 22.5 29.0 0.00 0.00 0.00 85 990.1
20260905063754 14 237 22.5 35.4 0.00 0.00 0.00 85 990.1
20260905063554 14 239 24.1 35.4 0.00 0.00 0.00 85 990.0
20260905063354 14 234 25.7 35.4 0.00 0.00 0.00 85 990.0
20260905063154 14 237 24.1 35.4 0.00 0.00 0.00 85 990.1
20260905062954 14 240 25.7 35.4 0.00 0.00 0.00 85 990.1
20260905062754 14 240 29.0 37.0 0.00 0.00 0.00 85 990.0
20260905062554 14 238 25.7 30.6 0.00 0.00 0.00 85 990.0
20260905062354 14 238 29.0 41.8 0.00 0.00 0.00 85 990.0
20260905062154 15 238 25.7 41.8 0.00 0.00 0.00 85 990.0
20260905061954 15 238 27.4 37.0 0.00 0.00 0.00 85 989.9
20260905061754 15 235 27.4 37.0 0.00 0.00 0.00 85 989.9
20260905061554 15 238 25.7 38.6 0.00 0.00 0.00 85 989.9
20260905061354 15 241 25.7 33.8 0.00 0.00 0.00 85 989.8
20260905061154 14 241 25.7 32.2 0.00 0.00 0.00 85 989.8
20260905060953 14 236 27.4 33.8 0.00 0.00 0.00 85 989.7
20260905060753 14 238 19.3 32.2 0.00 0.00 0.00 85 989.7
20260905060553 14 242 19.3 25.7 0.00 0.00 0.00 85 989.8
20260905060353 14 242 22.5 29.0 0.00 0.00 0.00 85 989.8
20260905060153 15 244 20.9 25.7 0.00 0.00 0.00 84 989.7
20260905055953 15 242 22.5 29.0 0.00 0.00 0.00 84 989.7
20260905055753 15 240 24.1 30.6 0.00 0.00 0.00 84 989.6
20260905055553 15 246 27.4 33.8 0.00 0.00 0.00 84 989.5
20260905055353 15 251 27.4 33.8 0.00 0.00 0.00 84 989.5
20260905055153 15 248 29.0 40.2 0.00 0.00 0.00 84 989.4
20260905054953 15 249 27.4 40.2 0.00 0.00 0.00 84 989.3
20260905054753 15 248 22.5 30.6 0.00 0.00 0.00 85 989.2
20260905054553 14 250 22.5 30.6 0.00 0.00 0.00 84 989.3
20260905054353 14 253 24.1 35.4 0.00 0.00 0.00 84 989.3
20260905054153 14 253 22.5 25.7 0.00 0.00 0.00 84 989.4
20260905053953 14 253 24.1 35.4 0.00 0.00 0.00 85 989.4
20260905053752 14 251 22.5 35.4 0.00 0.00 0.00 85 989.3
20260905053552 14 246 20.9 27.4 0.00 0.00 0.00 85 989.3
20260905053352 14 247 22.5 30.6 0.00 0.00 0.00 85 989.3
20260905053152 14 252 24.1 35.4 0.00 0.00 0.00 84 989.3
20260905052952 14 249 25.7 37.0 0.00 0.00 0.00 85 989.3
20260905052752 14 248 25.7 37.0 0.00 0.00 0.00 85 989.3
20260905052552 14 252 22.5 29.0 0.00 0.00 0.00 85 989.2
20260905052352 14 251 24.1 32.2 0.00 0.00 0.00 85 989.2
20260905052151 14 253 24.1 30.6 0.00 0.00 0.00 85 989.0
20260905051952 14 248 25.7 38.6 0.00 0.00 0.00 85 988.9
20260905051751 14 246 27.4 45.1 0.00 0.00 0.00 85 988.8
20260905051552 14 247 25.7 45.1 0.00 0.00 0.00 85 988.8
20260905051352 14 252 22.5 30.6 0.00 0.00 0.00 85 988.9
20260905051151 14 246 22.5 29.0 0.00 0.00 0.00 85 988.9
20260905050952 14 248 22.5 27.4 0.00 0.00 0.00 85 988.9
20260905050751 14 250 22.5 29.0 0.00 0.00 0.00 85 988.9
20260905050551 14 252 24.1 29.0 0.00 0.00 0.00 85 988.7
20260905050351 14 252 25.7 40.2 0.00 0.00 0.00 85 988.6
20260905050150 14 246 24.1 40.2 0.00 0.00 0.00 86 988.5
20260905045951 14 246 24.1 30.6 0.00 0.00 0.00 86 988.4
20260905045751 14 246 22.5 30.6 0.00 0.00 0.00 86 988.3
20260905045551 14 243 22.5 29.0 0.00 0.00 0.00 86 988.2
20260905045351 14 240 22.5 32.2 0.00 0.00 0.00 86 988.3
20260905045150 14 248 25.7 38.6 0.00 0.00 0.00 86 988.3
20260905044951 14 246 27.4 38.6 0.00 0.00 0.00 86 988.5
20260905044751 14 245 22.5 33.8 0.00 0.00 0.00 86 988.5
20260905044550 14 246 24.1 33.8 0.00 0.00 0.00 86 988.4
20260905044350 14 244 25.7 35.4 0.00 0.00 0.00 86 988.3
20260905044150 14 247 29.0 38.6 0.00 0.00 0.00 86 988.3
20260905043951 15 245 24.1 38.6 0.00 0.00 0.00 86 988.2
20260905043751 15 246 24.1 37.0 0.00 0.00 0.00 86 988.2
20260905043550 15 242 25.7 37.0 0.00 0.00 0.00 87 988.2
20260905043350 15 242 24.1 29.0 0.00 0.00 0.00 86 988.1
20260905043149 15 241 29.0 41.8 0.00 0.00 0.00 87 988.0
20260905042950 15 240 27.4 37.0 0.00 0.00 0.00 87 988.0
20260905042750 15 240 22.5 33.8 0.00 0.00 0.00 87 988.0
20260905042550 15 240 25.7 33.8 0.00 0.00 0.00 87 988.0
20260905042350 15 239 20.9 32.2 0.00 0.00 0.00 87 987.9
20260905041942 15 235 27.4 32.2 0.00 0.00 0.00 87 987.9
20260905041742 15 237 22.5 32.2 0.00 0.00 0.00 86 987.9
20260905041542 15 238 19.3 27.4 0.00 0.00 0.00 86 987.8
20260905041342 15 243 19.3 25.7 0.00 0.00 0.00 86 987.8
20260905041142 15 248 24.1 30.6 0.00 0.00 0.00 86 987.7
20260905040942 15 251 27.4 40.2 0.00 0.00 0.00 86 987.7
20260905040741 15 252 25.7 40.2 0.00 0.00 0.00 86 987.6
20260905040541 15 249 24.1 30.6 0.00 0.00 0.00 86 987.6
20260905040341 15 249 22.5 33.8 0.00 0.00 0.00 86 987.6
20260905040141 15 248 22.5 30.6 0.00 0.00 0.00 86 987.6
20260905035941 15 250 24.1 30.6 0.00 0.00 0.00 86 987.5
20260905035741 15 248 22.5 30.6 0.00 0.00 0.00 86 987.5
20260905035541 15 248 22.5 32.2 0.00 0.00 0.00 86 987.5
20260905035341 15 246 20.9 27.4 0.00 0.00 0.00 86 987.4
20260905035141 15 244 22.5 29.0 0.00 0.00 0.00 86 987.3
20260905034941 15 246 22.5 32.2 0.00 0.00 0.00 87 987.3
20260905034741 15 248 22.5 32.2 0.00 0.00 0.00 87 987.3
20260905034541 15 247 22.5 29.0 0.00 0.00 0.00 87 987.3
20260905034341 15 247 24.1 30.6 0.00 0.00 0.00 87 987.2
20260905034141 15 245 29.0 41.8 0.00 0.00 0.00 87 987.2
20260905033941 15 240 27.4 38.6 0.00 0.00 0.00 87 987.2
20260905033740 15 244 25.7 33.8 0.00 0.00 0.00 88 987.1
20260905033540 15 244 25.7 32.2 0.00 0.00 0.00 88 987.1
20260905033340 15 245 25.7 32.2 0.00 0.00 0.00 88 987.1
20260905033140 15 239 25.7 38.6 0.00 0.00 0.00 88 987.1
20260905032940 15 243 24.1 30.6 0.00 0.00 0.00 88 987.1
20260905032740 15 237 24.1 30.6 0.00 0.00 0.00 89 987.0
20260905032540 15 240 25.7 33.8 0.00 0.00 0.00 89 987.0
20260905032340 15 238 25.7 32.2 0.00 0.00 0.00 89 986.9
20260905032139 15 240 25.7 40.2 0.00 0.00 0.00 89 986.9
20260905031940 15 236 20.9 29.0 0.00 0.00 0.00 89 986.9
20260905031740 15 241 22.5 29.0 0.00 0.00 0.00 89 986.9
20260905031539 16 243 24.1 32.2 0.00 0.00 0.00 89 986.9
20260905031340 16 241 25.7 38.6 0.00 0.00 0.00 89 986.9
20260905031140 15 238 25.7 33.8 0.00 0.00 0.00 89 986.8
20260905030940 15 237 25.7 38.6 0.00 0.00 0.00 90 986.7
20260905030740 15 235 29.0 40.2 0.00 0.00 0.00 90 986.7
20260905030539 15 236 29.0 40.2 0.00 0.00 0.00 90 986.7
20260905030339 15 231 22.5 40.2 0.00 0.00 0.00 90 986.6
20260905030139 16 233 25.7 38.6 0.00 0.00 0.00 90 986.6
20260905025939 15 234 24.1 38.6 0.00 0.00 0.00 90 986.6
20260905025739 15 229 22.5 30.6 0.00 0.00 0.00 90 986.6
20260905025539 16 230 27.4 38.6 0.00 0.00 0.00 90 986.6
20260905025339 16 228 24.1 38.6 0.00 0.00 0.00 90 986.6
20260905025139 16 230 20.9 27.4 0.00 0.00 0.00 90 986.6
20260905024939 16 228 20.9 29.0 0.00 0.00 0.00 90 986.6
20260905024739 16 229 25.7 29.0 0.00 0.00 0.00 91 986.6
20260905024539 16 228 24.1 32.2 0.00 0.00 0.00 91 986.5
20260905024339 15 228 24.1 30.6 0.00 0.00 0.00 91 986.4
20260905024139 15 228 22.5 30.6 0.00 0.00 0.00 91 986.4
20260905023939 15 229 22.5 29.0 0.00 0.00 0.00 91 986.3
20260905023739 15 228 24.1 29.0 0.00 0.00 0.00 91 986.3
20260905023538 15 229 20.9 27.4 0.00 0.00 0.00 91 986.3
20260905023337 15 232 24.1 33.8 0.00 0.00 0.00 91 986.2
20260905023137 15 228 20.9 33.8 0.00 0.00 0.00 91 986.2
20260905022939 15 225 17.7 25.7 0.00 0.00 0.00 91 986.2
20260905022737 15 227 20.9 25.7 0.00 0.00 0.00 91 986.2
20260905022539 15 225 20.9 25.7 0.00 0.00 0.00 91 986.2
20260905022337 15 226 20.9 27.4 0.00 0.00 0.00 91 986.1
20260905022138 15 228 19.3 27.4 0.00 0.00 0.00 91 986.1
20260905021937 15 228 19.3 27.4 0.00 0.00 0.00 91 986.1
20260905021737 15 226 19.3 25.7 0.00 0.00 0.00 91 986.1
20260905021537 15 222 19.3 25.7 0.00 0.00 0.00 91 986.1
20260905021337 15 223 17.7 24.1 0.00 0.00 0.00 91 986.1
20260905021137 15 223 17.7 22.5 0.00 0.00 0.00 90 986.1
20260905020937 15 223 19.3 22.5 0.00 0.00 0.00 90 986.1
20260905020737 15 225 17.7 24.1 0.00 0.00 0.00 90 986.1
20260905020537 15 224 20.9 25.7 0.00 0.00 0.00 90 986.1
20260905020336 15 227 19.3 25.7 0.00 0.00 0.00 90 986.1
20260905020136 15 227 20.9 30.6 0.00 0.00 0.00 90 986.0
20260905015936 15 221 22.5 30.6 0.00 0.00 0.00 90 986.0
20260905015736 15 224 22.5 27.4 0.00 0.00 0.00 90 986.0
20260905015536 15 223 20.9 27.4 0.00 0.00 0.00 90 985.9
20260905015336 15 221 19.3 25.7 0.00 0.00 0.00 90 985.9
20260905015136 15 224 19.3 24.1 0.00 0.00 0.00 90 986.0
20260905014936 15 224 16.1 20.9 0.00 0.00 0.00 89 986.0
20260905014736 15 226 14.5 19.3 0.00 0.00 0.00 89 986.0
20260905014528 15 222 16.1 25.7 0.00 0.00 0.00 89 986.0
20260905014328 15 218 17.7 25.7 0.00 0.00 0.00 89 986.1
20260905014128 16 218 17.7 24.1 0.00 0.00 0.00 89 986.1
20260905013928 16 218 19.3 27.4 0.00 0.00 0.00 89 986.1
20260905013728 16 224 17.7 22.5 0.00 0.00 0.00 89 986.2
20260905013528 16 223 19.3 24.1 0.00 0.00 0.00 88 986.1
20260905013328 16 221 20.9 32.2 0.00 0.00 0.00 89 986.1
20260905013128 16 225 19.3 24.1 0.00 0.00 0.00 88 986.2
20260905012927 16 228 17.7 22.5 0.00 0.00 0.00 88 986.2
20260905012727 16 227 17.7 22.5 0.00 0.00 0.00 88 986.1
20260905012527 16 229 17.7 25.7 0.00 0.00 0.00 89 986.1
20260905012327 16 230 19.3 25.7 0.00 0.00 0.00 88 986.0
20260905012127 16 232 16.1 22.5 0.00 0.00 0.00 88 986.0
20260905011927 16 226 16.1 22.5 0.00 0.00 0.00 88 985.9
20260905011727 16 225 19.3 27.4 0.00 0.00 0.00 88 985.8
20260905011527 16 225 19.3 27.4 0.00 0.00 0.00 88 985.8
20260905011327 16 225 22.5 30.6 0.00 0.00 0.00 88 985.9
20260905011127 16 227 22.5 30.6 0.00 0.00 0.00 88 985.9
20260905010927 16 225 20.9 27.4 0.00 0.00 0.00 88 985.9
20260905010727 16 222 17.7 24.1 0.00 0.00 0.00 87 985.8
20260905010527 16 226 19.3 25.7 0.00 0.00 0.00 88 985.8
20260905010327 16 230 19.3 25.7 0.00 0.00 0.00 87 985.8
20260905010127 16 230 17.7 25.7 0.00 0.00 0.00 87 985.8
20260905005927 16 227 17.7 25.7 0.00 0.00 0.00 87 985.8
20260905005726 16 223 17.7 25.7 0.00 0.00 0.00 87 985.8
20260905005526 16 224 19.3 25.7 0.00 0.00 0.00 87 985.8
20260905005326 16 223 20.9 27.4 0.00 0.00 0.00 87 985.7
20260905005126 16 224 17.7 27.4 0.00 0.00 0.00 87 985.7
20260905004926 16 225 16.1 22.5 0.00 0.00 0.00 87 985.8
20260905004726 16 226 16.1 20.9 0.00 0.00 0.00 87 985.8
20260905004526 16 226 17.7 24.1 0.00 0.00 0.00 87 985.8
20260905004326 16 226 19.3 27.4 0.00 0.00 0.00 87 985.8
20260905004126 16 225 17.7 25.7 0.00 0.00 0.00 87 985.8
20260905003926 16 221 19.3 27.4 0.00 0.00 0.00 87 985.8
20260905003726 16 219 19.3 27.4 0.00 0.00 0.00 87 985.8
20260905003526 16 220 17.7 27.4 0.00 0.00 0.00 87 985.8
20260905003326 16 224 17.7 25.7 0.00 0.00 0.00 87 985.9
20260905003128 16 226 19.3 29.0 0.00 0.00 0.00 86 985.8
20260905002926 16 220 17.7 29.0 0.00 0.00 0.00 86 985.8
20260905002725 16 218 20.9 27.4 0.00 0.00 0.00 86 985.7
20260905002525 16 213 20.9 27.4 0.00 0.00 0.00 86 985.7
20260905002325 16 217 20.9 25.7 0.00 0.00 0.00 86 985.7
20260905002124 16 225 16.1 22.5 0.00 0.00 0.00 86 985.8
20260905001925 16 227 17.7 25.7 0.00 0.00 0.00 86 985.8
20260905001725 16 227 20.9 25.7 0.00 0.00 0.00 86 985.8
20260905001525 16 232 22.5 27.4 0.00 0.00 0.00 86 985.7
20260905001325 16 232 24.1 29.0 0.00 0.00 0.00 86 985.7
20260905001124 16 233 22.5 29.0 0.00 0.00 0.00 86 985.7
20260905000925 16 228 22.5 29.0 0.00 0.00 0.00 86 985.6
20260905000725 16 228 24.1 35.4 0.00 0.00 0.00 86 985.6
20260905000525 16 233 22.5 35.4 0.00 0.00 0.00 86 985.6
20260905000325 16 235 22.5 33.8 0.00 0.00 0.00 86 985.6
20260905000124 16 235 22.5 33.8 0.00 0.00 0.00 86 985.6
20260904235925 16 233 20.9 29.0 0.00 0.00 0.00 86 985.6